Back to catalog

CAPELLA-11

ACADIA

AliveScienceLEO
NORAD 57693·PAYLOAD·🇺🇸 United States

Launched Aug 23, 2023 from Rocket Lab Launch Complex 1

Loading…

Next Passes (next 24 hours)

TLE

FreshSource: Space-Track

Epoch: Sep 14, 2026, 03:58 UTC

1 57693U 23126A   26257.16552987  .00004034  00000-0  45914-3 0  9996
2 57693  53.0056 157.6061 0001740  41.6160 318.4953 14.88142625165351

Track CAPELLA-11 in real time with AllMySat

Download on the App Store